Home   Weather   Comodoro Rivadavia   Past weeks

Flag for Argentina Past Weather in Comodoro Rivadavia, Chubut, Argentina — Yesterday and Last 2 Weeks

Now
64 °F

Passing clouds.


Feels Like: 64 °F
Forecast: 61 / 87 °F
Wind: 18 mph from Northwest

Location: Comodoro Rivadavia Aerodrome

Current Time: Dec 3, 2016 at 4:00:51 am

Latest Report: Dec 3, 2016 at 3:00 am


Visibility: N/A

Pressure: 29.83 "Hg

Humidity: 46%

Dew Point: 43 °F

Location of Comodoro RivadaviaLocation

Past Weather in Comodoro Rivadavia — Graph

°F

Comodoro Rivadavia Temperature Yesterday

Maximum temperature yesterday: 68 °F (at 1:00 pm)
Minimum temperature yesterday: 54 °F (at 5:00 am)
Average temperature yesterday: 61 °F

High & Low Weather Summary for the Past Weeks

 TemperatureHumidityPressure
High91 °F (Nov 29, 7:00 pm)100% (Nov 26, 1:00 pm)30.30 "Hg (Nov 26, 1:00 pm)
Low43 °F (Nov 21, 2:00 am)15% (Dec 1, 2:00 pm)29.53 "Hg (Dec 1, 4:00 am)
Average66 °F53%29.89 "Hg
* Reported Nov 18 3:00 am — Dec 3 3:00 am, Comodoro Rivadavia, Weather by CustomWeather, © 2016

Note: Actual official high and low records may vary slightly from our data, if they occured in-between our weather recording intervals... More about our weather records

Advertising

Comodoro Rivadavia Weather History for the Previous 24 Hours

Scroll right to see more
 ConditionsComfort  
Time TempWeatherWind HumidityBarometerVisibility
3:00 am
Sat, Dec 3
64 °FPassing clouds.18 mph46%29.83 "HgN/A
2:00 am66 °FPassing clouds.18 mph43%29.83 "HgN/A
1:00 am66 °FPassing clouds.17 mph43%29.83 "HgN/A
12:00 am54 °FClear.1 mph82%29.86 "Hg10 mi
11:00 pm
Fri, Dec 2
59 °FClear.3 mph72%29.86 "Hg10 mi
10:00 pm59 °FClear.8 mph72%29.89 "Hg10 mi
9:00 pm59 °FSunny.14 mph68%29.89 "Hg10 mi
8:00 pm63 °FSunny.20 mph52%29.89 "Hg10 mi
7:00 pm63 °FSunny.22 mph52%29.92 "Hg10 mi
6:00 pm64 °FSunny.25 mph52%29.92 "Hg10 mi
5:00 pm64 °FSunny.24 mph52%29.95 "Hg10 mi
4:00 pm66 °FSunny.21 mph43%29.95 "Hg10 mi
3:00 pm66 °FSunny.24 mph35%29.98 "Hg10 mi
2:00 pm68 °FSunny.18 mph35%29.98 "Hg10 mi
1:00 pm68 °FPassing clouds.15 mph38%30.01 "HgN/A
12:00 pm66 °FSunny.9 mph43%30.01 "Hg10 mi
11:00 am64 °FSunny.7 mph46%30.01 "Hg10 mi
10:00 am64 °FSunny.7 mph49%30.04 "Hg10 mi
9:00 am63 °FSunny.3 mph52%30.01 "Hg10 mi
8:00 am59 °FSunny.8 mph55%30.01 "Hg10 mi
7:00 am55 °FSunny.15 mph55%30.01 "Hg10 mi
6:00 am54 °FSunny.16 mph54%29.98 "Hg10 mi
5:00 am54 °FClear.12 mph58%29.95 "Hg10 mi
4:00 am55 °FClear.12 mph55%29.95 "Hg10 mi
Weather by CustomWeather, © 2016

See weather overviewHow to use our weather pages